Lenoir, NC

3:32 PM EST on February 24, 2017 (GMT -0500)
Morganton-Lenoir

Weather History for KMRN - October, 2013

Change the Weather History Date:

Wednesday, October 16, 2013

  Actual Average (KHKY) Record (KHKY)
Temperature  
Mean Temperature 60 °F -  
Max Temperature 71 °F 71 °F 86 °F (1953)
Min Temperature 48 °F 49 °F 36 °F (1954)
Degree Days  
Heating Degree Days 6    
Growing Degree Days 10 (Base 50)    
Moisture  
Dew Point 55 °F    
Average Humidity 86    
Maximum Humidity 100    
Minimum Humidity 56    
Precipitation  
Precipitation 0.00 in - - ()
Sea Level Pressure  
Sea Level Pressure 30.09 in    
Wind  
Wind Speed 1 mph (West)    
Max Wind Speed 6 mph    
Max Gust Speed -    
Visibility 8 miles    
Events Fog    
Averages and records for this station are not official NWS values.
T = Trace of Precipitation, MM = Missing Value Source: NWS Daily Summary

Daily Weather History Graph

Daily Weather History Graph

Search for Another Location

Airport or City:

Trip Planner

Search our weather history database for the weather conditions in past years. The results will help you decide how hot, cold, wet, or windy it might be!

Date:

Astronomy

Oct. 16, 2013 Rise Set
Actual Time 7:34 AM EDT 6:49 PM EDT
Civil Twilight 7:08 AM EDT 7:14 PM EDT
Nautical Twilight 6:38 AM EDT 7:44 PM EDT
Astronomical Twilight 6:08 AM EDT 8:14 PM EDT
Moon 5:24 PM EDT (10/16) 5:04 AM EDT (10/16)
Length of Visible Light 12h 06m
Length of Day
11h 15m
Waxing Gibbous, 94% of the Moon is Illuminated
Oct 16
Waxing Gibbous
Oct 18
Full
Oct 26
Last Quarter
Nov 3
New
Nov 10
First Quarter

Hourly Weather History & Observations

Time (EDT) Temp. Dew Point Humidity Pressure Visibility Wind Dir Wind Speed Gust Speed Precip Events Conditions
12:15 AM 55.4 °F 55.4 °F 100% 30.16 in 7.0 mi Calm Calm - N/A   Clear
12:35 AM 54.7 °F 54.7 °F 100% 30.15 in 7.0 mi Calm Calm - N/A   Clear
12:55 AM 55.0 °F 55.0 °F 100% 30.14 in 7.0 mi Calm Calm - N/A   Clear
1:15 AM 54.5 °F 54.5 °F 100% 30.14 in 7.0 mi Calm Calm - N/A   Clear
1:35 AM 54.5 °F 54.5 °F 100% 30.14 in 7.0 mi Calm Calm - N/A   Clear
1:55 AM 54.7 °F 54.7 °F 100% 30.14 in 5.0 mi Calm Calm - N/A   Clear
2:15 AM 56.7 °F 56.7 °F 100% 30.13 in 7.0 mi Calm Calm - N/A   Clear
2:35 AM 56.1 °F 56.1 °F 100% 30.14 in 7.0 mi NNW 4.6 mph - N/A   Clear
2:55 AM 55.4 °F 55.4 °F 100% 30.13 in 5.0 mi North 3.5 mph - N/A   Clear
3:15 AM 55.4 °F 55.4 °F 100% 30.12 in 7.0 mi North 3.5 mph - N/A   Clear
3:35 AM 55.4 °F 55.4 °F 100% 30.12 in 7.0 mi Calm Calm - N/A   Clear
3:55 AM 54.7 °F 54.7 °F 100% 30.12 in 5.0 mi NNW 4.6 mph - N/A   Clear
4:15 AM 54.7 °F 54.7 °F 100% 30.12 in 7.0 mi Calm Calm - N/A   Clear
4:35 AM 53.6 °F 53.6 °F 100% 30.11 in 5.0 mi Calm Calm - N/A   Scattered Clouds
4:55 AM 53.1 °F 53.1 °F 100% 30.12 in 5.0 mi NW 3.5 mph - N/A   Scattered Clouds
5:15 AM 51.8 °F 51.8 °F 100% 30.10 in 0.8 mi Calm Calm - N/A   Overcast
5:35 AM 50.9 °F 50.9 °F 100% 30.11 in 0.2 mi Calm Calm - N/A Fog Fog
5:55 AM 49.3 °F 49.3 °F 100% 30.10 in 0.2 mi Calm Calm - N/A Fog Fog
6:15 AM 48.7 °F 48.7 °F 100% 30.10 in 0.5 mi Calm Calm - N/A Fog Fog
6:35 AM 48.7 °F 48.7 °F 100% 30.12 in 0.2 mi Calm Calm - N/A Fog Fog
6:55 AM 48.9 °F 48.9 °F 100% 30.12 in 0.2 mi Calm Calm - N/A Fog Fog
7:15 AM 49.1 °F 49.1 °F 100% 30.12 in 0.2 mi Calm Calm - N/A Fog Fog
7:35 AM 48.7 °F 48.7 °F 100% 30.13 in 0.2 mi Calm Calm - N/A Fog Fog
7:55 AM 48.7 °F 48.7 °F 100% 30.13 in 0.2 mi Calm Calm - N/A Fog Fog
8:15 AM 49.5 °F 49.5 °F 100% 30.14 in 4.0 mi Calm Calm - N/A   Clear
8:35 AM 51.8 °F 51.8 °F 100% 30.14 in 3.0 mi Calm Calm - N/A   Clear
8:55 AM 53.4 °F 53.4 °F 100% 30.14 in 10.0 mi Calm Calm - N/A   Clear
9:15 AM 55.4 °F 55.4 °F 100% 30.14 in 10.0 mi Calm Calm - N/A   Scattered Clouds
9:35 AM 56.8 °F 56.8 °F 100% 30.14 in 10.0 mi Calm Calm - N/A   Scattered Clouds
9:55 AM 57.9 °F 56.7 °F 96% 30.13 in 10.0 mi Calm Calm - N/A   Clear
10:15 AM 59.4 °F 55.9 °F 88% 30.14 in 10.0 mi Calm Calm - N/A   Clear
10:35 AM 60.6 °F 56.7 °F 87% 30.14 in 10.0 mi Calm Calm - N/A   Clear
10:55 AM 64.0 °F 55.8 °F 74% 30.13 in 10.0 mi Calm Calm - N/A   Clear
11:15 AM 64.9 °F 53.8 °F 67% 30.13 in 10.0 mi Calm Calm - N/A   Clear
11:35 AM 65.8 °F 53.4 °F 64% 30.13 in 10.0 mi Calm Calm - N/A   Clear
11:55 AM 66.0 °F 54.1 °F 65% 30.12 in 10.0 mi Calm Calm - N/A   Clear
12:15 PM 66.4 °F 54.3 °F 65% 30.12 in 10.0 mi Calm Calm - N/A   Scattered Clouds
12:35 PM 66.4 °F 54.9 °F 66% 30.11 in 10.0 mi Calm Calm - N/A   Clear
12:55 PM 68.4 °F 54.9 °F 62% 30.10 in 10.0 mi Calm Calm - N/A   Clear
1:15 PM 68.7 °F 54.0 °F 59% 30.08 in 10.0 mi Calm Calm - N/A   Clear
1:35 PM 68.0 °F 54.9 °F 63% 30.07 in 10.0 mi Calm Calm - N/A   Clear
1:55 PM 68.2 °F 56.3 °F 66% 30.07 in 10.0 mi Calm Calm - N/A   Clear
2:15 PM 69.8 °F 55.8 °F 61% 30.07 in 10.0 mi WSW 3.5 mph - N/A   Scattered Clouds
2:35 PM 69.4 °F 55.6 °F 61% 30.06 in 10.0 mi West 3.5 mph - N/A   Overcast
2:55 PM 71.4 °F 55.9 °F 58% 30.04 in 10.0 mi Calm Calm - N/A   Mostly Cloudy
3:15 PM 70.3 °F 55.8 °F 60% 30.04 in 10.0 mi SSW 3.5 mph - N/A   Scattered Clouds
3:35 PM 70.2 °F 55.9 °F 61% 30.04 in 10.0 mi Calm Calm - N/A   Mostly Cloudy
3:55 PM 71.6 °F 55.2 °F 56% 30.03 in 10.0 mi SSE 5.8 mph - N/A   Scattered Clouds
4:15 PM 71.4 °F 55.4 °F 57% 30.03 in 10.0 mi South 3.5 mph - N/A   Clear
4:35 PM 71.4 °F 55.6 °F 57% 30.03 in 10.0 mi SSW 3.5 mph - N/A   Scattered Clouds
4:55 PM 69.6 °F 55.9 °F 62% 30.03 in 10.0 mi Calm Calm - N/A   Clear
5:15 PM 69.8 °F 56.7 °F 63% 30.03 in 10.0 mi Calm Calm - N/A   Scattered Clouds
5:35 PM 69.8 °F 56.5 °F 63% 30.03 in 10.0 mi Calm Calm - N/A   Scattered Clouds
5:55 PM 68.5 °F 59.0 °F 72% 30.03 in 10.0 mi Calm Calm - N/A   Clear
6:15 PM 68.4 °F 58.1 °F 70% 30.04 in 10.0 mi Calm Calm - N/A   Scattered Clouds
6:35 PM 67.1 °F 58.1 °F 73% 30.04 in 10.0 mi Calm Calm - N/A   Scattered Clouds
6:55 PM 65.8 °F 59.0 °F 79% 30.04 in 10.0 mi Calm Calm - N/A   Scattered Clouds
7:15 PM 65.3 °F 59.4 °F 81% 30.04 in 10.0 mi Calm Calm - N/A   Mostly Cloudy
7:35 PM 65.1 °F 59.2 °F 81% 30.04 in 10.0 mi Calm Calm - N/A   Mostly Cloudy
7:55 PM 63.1 °F 60.4 °F 91% 30.05 in 10.0 mi Calm Calm - N/A   Scattered Clouds
8:15 PM 61.7 °F 60.3 °F 95% 30.05 in 10.0 mi Calm Calm - N/A   Clear
8:35 PM 62.4 °F 60.4 °F 93% 30.05 in 10.0 mi Calm Calm - N/A   Clear
8:55 PM 60.8 °F 59.9 °F 97% 30.05 in 10.0 mi Calm Calm - N/A   Clear
9:35 PM 59.2 °F 59.0 °F 99% 30.05 in 10.0 mi Calm Calm - N/A   Clear
9:55 PM 59.4 °F 59.0 °F 99% 30.05 in 10.0 mi Calm Calm - N/A   Clear
10:15 PM 59.7 °F 59.0 °F 97% 30.05 in 10.0 mi Calm Calm - N/A   Clear
10:35 PM 60.4 °F 59.9 °F 98% 30.05 in 10.0 mi Calm Calm - N/A   Clear
10:55 PM 59.2 °F 58.6 °F 98% 30.05 in 10.0 mi Calm Calm - N/A   Clear
11:15 PM 59.9 °F 59.5 °F 99% 30.06 in 10.0 mi Calm Calm - N/A   Clear
11:35 PM 58.1 °F 57.4 °F 97% 30.05 in 10.0 mi Calm Calm - N/A   Clear
11:55 PM 57.6 °F 57.4 °F 99% 30.04 in 10.0 mi Calm Calm - N/A   Clear